Retour au catalogue

DELTA 1 DEB

ActifLEO
NORAD 10757·DEBRIS·🇺🇸 United States

Lancé Jul 29, 1976 depuis Vandenberg Space Force Base

Loading…

Prochains Passages (prochaines 24 heures)

TLE

FraisSource: Space-Track

Époque: Sep 14, 2026, 01:00 UTC

1 10757U 76077BE  26257.04180471  .00000432  00000-0  53658-2 0  9992
2 10757 101.9128 295.2589 0232033 252.0409 134.8351 12.00609929194354

Suivez DELTA 1 DEB en temps réel avec AllMySat

Download on the App Store